Погода в Болонье

Италия     44°30′17″N   11°20′42″E
темп.,
°C
ветер,
м/с
пор.,
м/с
влажн.,
%
обл.,
%
осадки,
мм/ч
давл.,
гПа
погр.,
м
16 мая, пн
пн1623:00+18ююз347517 0.0 101848
02:00+16ююз33696 0.0 101737
05:00+15юз22717 0.1 101825
08:00+18ююз22695 0.1 101997
11:00+23ссз21545 0.0 1019568
14:00+26ссв215122 0.0 1018833
17:00+27св12455 0.0 10161160
20:00+22зюз226841 0.0 101612
17 мая, вт
вт1723:00+18юз456799 0.0 101872
02:00+16юз23655 0.0 101836
05:00+15юз22635 0.0 101823
08:00+18зюз11655 0.0 1019112
11:00+22с216115 0.0 1019509
14:00+25ссв1158100 0.0 1018848
17:00+26всв115784 0.0 1016920
20:00+23юв117250 0.0 101611
18 мая, ср
ср1823:00+19ю22847 0.0 101721
02:00+17ююз22825 0.0 101821
05:00+16в11870 0.0 101916
08:00+19в12800 0.0 1021191
11:00+23всв346819 0.0 1022818
14:00+25в55605 0.0 10221118
17:00+24в556124 0.0 1021893
20:00+20в34815 0.0 102188
19 мая, чт
чт1923:00+16вюв22830 0.0 102324
02:00+15ююв11855 0.0 102412
05:00+14ююв11865 0.0 102410
08:00+18вюв12750 0.0 1025158
11:00+23в34595 0.0 1025760
14:00+25в44545 0.0 10251070
17:00+24в55585 0.0 1024826
20:00+19вюв35745 0.0 102492
20 мая, пт
пт2023:00+16юв22745 0.0 102522
02:00+16ю128054 0.0 102512
05:00+15ююв018611 0.0 102511
08:00+18с11789 0.0 1026146
11:00+23с21685 0.0 1026514
14:00+26ссв21615 0.1 1024774
17:00+27вюв125818 0.5 1022950
20:00+23вюв23795 0.6 102155